[[{"header":{"parameterUnit":"m.s-1","parameterCategory":1,"la1":30.2991,"la2":30.254,"lo1":-89.0895,"lo2":-89.0444,"dy":0.0017,"dx":0.0017,"nx":28,"ny":28,"refTime":"2025-09-16T21:00:00:Z","depth":0,"parameterNumber":2,"parameterNumberName":"U-component_of_WINDS"},"data":[0,0,0,0,0,0,0,0,0,0,0,0,0,0,0,0,0,0,0,0,0,0,0,0,0,0,0,0,0,0,0,0,0,0,0,0,0,0,0,0,0,0,0,0,0,0,0,0,0,0,0,0,0,0,0,0,0,0,1.985,1.985,0,1.988,1.9881,1.9881,1.9864,1.9863,1.9862,1.9862,1.9891,1.9893,1.9894,0,0,0,0,0,0,0,0,0,0,0,0,0,1.9775,1.9776,1.985,1.985,1.9851,1.988,1.9881,1.9881,1.9864,1.9863,1.9862,1.9861,1.9891,1.9893,1.9895,0,0,0,0,0,0,0,0,0,0,0,0,0,1.9806,1.9777,1.985,1.9846,1.9846,1.988,1.9881,1.9881,1.9864,1.9863,1.9862,1.9861,1.989,1.9892,1.9895,1.9934,0,0,1.9902,1.9903,0,0,0,0,0,0,0,0,1.9805,1.9809,1.9846,1.9846,1.9846,1.9867,1.9865,1.9899,1.9865,1.9857,1.9862,1.986,1.9884,1.9887,1.9895,1.9936,1.9937,1.9902,1.9904,1.9905,1.9905,0,0,0,0,0,0,0,1.9802,1.9808,1.9862,1.9847,1.9847,1.9842,1.9845,1.9871,1.9877,1.9858,1.9857,1.9861,1.9884,1.9893,1.9896,1.9937,1.9902,1.9904,1.9906,1.9907,2.0007,2.0009,0,0,0,0,0,0,1.9801,1.9806,1.9861,1.9863,1.9822,1.9844,1.9848,1.9862,1.9877,1.9878,1.9862,1.986,1.989,1.9893,1.9897,1.9941,1.9905,1.9907,1.9908,2.0006,2.0008,2.0009,0,0,0,0,0,0,1.9799,1.9806,1.986,1.9834,1.9841,1.9847,1.9863,1.9863,1.9872,1.988,1.9881,1.987,1.9889,1.9894,1.9924,1.9942,1.9908,1.991,2.0005,2.0007,2.0008,2.0032,0,0,0,0,0,0,1.9797,1.9805,1.9821,1.9835,1.9842,1.9888,1.9864,1.9864,1.9876,1.9874,1.9888,1.9889,1.9888,1.9921,1.9927,1.9945,1.9912,2.0003,2.0005,2.0008,2.0029,2.0034,2.0038,0,0,0,0,0,1.9795,1.9828,1.9822,1.9829,1.9862,1.9889,1.9893,1.9892,1.9878,1.9893,1.9898,1.9889,1.994,1.9924,1.993,1.995,2.0002,2.0005,2.0008,2.0027,2.0033,2.0038,0,0,0,0,0,0,1.9817,1.9829,1.9824,1.9862,1.9874,1.9886,1.9905,1.9899,1.9915,1.9912,1.991,1.9913,1.9944,1.995,1.9933,1.9986,1.9968,1.9973,1.9981,1.9987,1.9991,1.9988,1.9914,0,0,0,0,0,1.9826,1.9847,1.9857,1.989,1.9896,1.99,1.9911,1.9909,1.9921,1.9927,1.9934,1.9946,1.9964,1.9976,1.9994,2.0031,2.0032,2.0047,2.0051,2.0055,2.0058,2.0075,2.008,2.0018,2.0018,2.0018,0,0,1.9846,1.9855,1.9869,1.9894,1.9904,1.9924,1.9904,1.9928,1.9942,1.993,1.9959,1.9964,1.9977,2.001,2.0025,2.0016,2.0075,2.0058,2.0061,2.0062,2.0078,2.0084,2.0089,2.002,2.002,2.002,0,0,1.9891,1.9902,1.9928,1.9937,1.9951,1.9953,1.9959,1.9972,1.9974,2.0003,1.9993,2.001,2.0043,2.0052,2.006,2.0106,2.0097,2.0112,2.0135,2.0151,2.0156,2.016,2.0174,2.0179,2.0115,2.0115,2.0115,0,1.9913,1.9944,1.9943,1.9966,1.9976,1.9966,1.9991,2.0,2.002,2.0026,2.0016,2.0054,2.0063,2.0096,2.0107,2.0115,2.0121,2.011,2.0156,2.016,2.0164,2.0176,2.0182,2.0117,2.0117,2.0117,2.0116,0,1.9969,1.9991,2.0011,2.0028,2.0041,2.0066,2.0066,2.0079,2.0075,2.0077,2.0105,2.0114,2.0132,2.014,2.0137,2.0172,2.0166,2.0156,2.0137,2.0171,2.0183,2.0188,2.0119,2.0118,2.0118,2.0118,0,0,2.003,2.0045,2.0052,2.0058,2.0072,2.0088,2.0111,2.0128,2.0137,2.015,2.0168,2.0194,2.0184,2.0194,2.0192,2.0207,2.0238,2.0194,2.0194,2.02,2.0274,2.028,2.0286,2.0233,2.0234,2.0235,2.0272,0,2.0074,2.0114,2.0112,2.0149,2.0167,2.0156,2.0176,2.0185,2.0187,2.0202,2.0205,2.0222,2.0209,2.0214,2.0229,2.0231,2.0253,2.0229,2.0247,2.0248,2.0242,2.0293,2.0299,2.0334,2.0277,2.0278,2.0278,0,2.0132,2.0145,2.0183,2.0191,2.0198,2.0216,2.023,2.0245,2.0254,2.0255,2.0264,2.0259,2.028,2.0262,2.029,2.0274,2.0281,2.0283,2.0285,2.0285,2.0264,2.0292,2.0345,2.035,2.0286,2.0286,2.0285,0,2.0168,2.0196,2.0222,2.0228,2.0238,2.025,2.0255,2.0264,2.0273,2.0285,2.0291,2.0305,2.0313,2.0324,2.0321,2.0309,2.0349,2.0331,2.0348,2.0348,2.0356,2.0355,2.0409,2.0364,2.0364,2.0364,2.0364,0,2.0216,2.024,2.0238,2.0253,2.0278,2.0275,2.0299,2.0303,2.031,2.0325,2.0317,2.0331,2.0328,2.0342,2.0341,2.0362,2.0366,2.0366,2.0365,2.0365,2.0365,2.0369,2.0366,2.0365,2.0365,2.0365,2.0365,0,2.0261,2.0262,2.0288,2.0295,2.0297,2.0315,2.032,2.0334,2.0335,2.0354,2.0358,2.0359,2.0375,2.0374,2.0392,2.0391,2.0416,2.0414,2.0413,2.0412,2.0427,2.0425,2.0484,2.0491,2.0444,2.0444,2.0445,0,2.0291,2.0308,2.0316,2.0325,2.0331,2.0346,2.0355,2.0352,2.0361,2.0372,2.0384,2.0398,2.0409,2.0434,2.0436,2.0449,2.0445,2.0465,2.0447,2.0446,2.0442,2.0441,2.0441,2.0468,2.0469,2.0469,2.0469,0,2.0343,2.0341,2.0354,2.0367,2.0377,2.0387,2.0396,2.0404,2.0402,2.0412,2.0427,2.0436,2.0453,2.0467,2.0478,2.0482,2.0475,2.0475,2.0479,2.0479,2.0477,2.0475,2.042,2.0473,2.0473,2.0473,2.0473,2.0472,2.0379,2.0393,2.0399,2.0414,2.042,2.0427,2.044,2.0442,2.0454,2.0467,2.0465,2.0481,2.0488,2.0503,2.0508,2.0519,2.0512,2.0519,2.052,2.0521,2.0522,2.0476,2.0522,2.0522,2.0522,2.0522,2.0522,0,2.0428,2.0431,2.0444,2.0456,2.0467,2.0459,2.0467,2.0476,2.0491,2.0498,2.0508,2.0524,2.0537,2.0539,2.0551,2.056,2.0556,2.0563,2.0561,2.0561,2.0529,2.0523,2.0565,2.0565,2.0565,2.0565,2.0565,2.0565,2.0455,2.0476,2.0475,2.0498,2.0501,2.0517,2.0522,2.0528,2.0533,2.0551,2.0561,2.0563,2.0567,2.0579,2.059,2.059,2.0593,2.0601,2.0599,2.0569,2.0564,2.056,2.0554,2.0602,2.0602,2.0631,2.0631,2.0631]},{"header":{"parameterUnit":"m.s-1","parameterCategory":1,"la1":30.2991,"la2":30.254,"lo1":-89.0895,"lo2":-89.0444,"dy":0.0017,"dx":0.0017,"nx":28,"ny":28,"refTime":"2025-09-16T21:00:00:Z","depth":0,"parameterNumber":3,"parameterNumberName":"V-component_of_WINDS"},"data":[0,0,0,0,0,0,0,0,0,0,0,0,0,0,0,0,0,0,0,0,0,0,0,0,0,0,0,0,0,0,0,0,0,0,0,0,0,0,0,0,0,0,0,0,0,0,0,0,0,0,0,0,0,0,0,0,0,0,0.7027,0.7027,0,0.7012,0.7012,0.7012,0.6997,0.6997,0.6996,0.6996,0.6979,0.6979,0.6979,0,0,0,0,0,0,0,0,0,0,0,0,0,0.7038,0.7038,0.7027,0.7027,0.7027,0.7012,0.7012,0.7012,0.6997,0.6997,0.6996,0.6996,0.6979,0.6979,0.6979,0,0,0,0,0,0,0,0,0,0,0,0,0,0.703,0.7038,0.7027,0.7017,0.7016,0.7012,0.7012,0.7012,0.6997,0.6997,0.6996,0.6996,0.6979,0.6979,0.6979,0.6983,0,0,0.6978,0.6977,0,0,0,0,0,0,0,0,0.703,0.7029,0.7019,0.7018,0.7017,0.7006,0.701,0.7002,0.6997,0.7004,0.6996,0.6996,0.6988,0.6987,0.6985,0.6982,0.6981,0.6978,0.6977,0.6977,0.6977,0,0,0,0,0,0,0,0.7031,0.703,0.7021,0.7019,0.7018,0.7013,0.7011,0.7008,0.6998,0.7004,0.7002,0.7001,0.6988,0.6985,0.6985,0.6981,0.6978,0.6977,0.6977,0.6977,0.6977,0.6977,0,0,0,0,0,0,0.7033,0.703,0.7022,0.7021,0.7023,0.7013,0.7011,0.701,0.6998,0.6996,0.7001,0.7,0.6986,0.6985,0.6984,0.6986,0.6977,0.6977,0.6977,0.6977,0.6977,0.6977,0,0,0,0,0,0,0.7033,0.7033,0.7022,0.7025,0.7023,0.7013,0.7012,0.701,0.7008,0.6996,0.6994,0.7001,0.6986,0.6984,0.6983,0.6985,0.6977,0.6976,0.6977,0.6977,0.6977,0.6992,0,0,0,0,0,0,0.7034,0.7033,0.7035,0.7025,0.7023,0.7022,0.7012,0.701,0.7007,0.7006,0.6996,0.6994,0.6986,0.6983,0.6982,0.6985,0.6976,0.6976,0.6977,0.6977,0.6991,0.6993,0.6994,0,0,0,0,0,0.7034,0.704,0.7035,0.7034,0.7026,0.7023,0.7021,0.7012,0.7007,0.7009,0.7001,0.6994,0.6985,0.6983,0.6982,0.6984,0.6976,0.6977,0.6977,0.699,0.6992,0.6994,0,0,0,0,0,0,0.705,0.7039,0.7033,0.7036,0.703,0.702,0.7022,0.7015,0.701,0.7009,0.6998,0.6995,0.6994,0.6989,0.6987,0.6986,0.6979,0.698,0.699,0.6992,0.6993,0.6994,0.6976,0,0,0,0,0,0.7054,0.7053,0.7042,0.7046,0.7043,0.7033,0.7031,0.7024,0.7018,0.7015,0.7008,0.7001,0.6996,0.6994,0.6989,0.699,0.6986,0.6991,0.6992,0.6993,0.6994,0.6992,0.6993,0.6979,0.6979,0.6979,0,0,0.7062,0.7056,0.7056,0.7049,0.7044,0.7041,0.7031,0.703,0.7028,0.7015,0.7013,0.7006,0.6998,0.6997,0.6996,0.6992,0.6997,0.6994,0.6995,0.6995,0.6992,0.6994,0.6995,0.6979,0.6979,0.6979,0,0,0.7076,0.7071,0.7073,0.7067,0.7059,0.7052,0.7052,0.7042,0.7038,0.7035,0.7025,0.7021,0.7015,0.7008,0.7004,0.7012,0.7005,0.7011,0.7019,0.7017,0.7018,0.7019,0.7021,0.7022,0.7011,0.7011,0.7011,0,0.7087,0.7084,0.7074,0.7073,0.7069,0.7057,0.7058,0.7053,0.7044,0.7041,0.7037,0.7026,0.702,0.7016,0.7018,0.7015,0.7014,0.7012,0.7019,0.702,0.702,0.7022,0.7023,0.7012,0.7012,0.7012,0.7012,0,0.7097,0.7095,0.7097,0.7088,0.7085,0.7084,0.7073,0.7071,0.7063,0.7056,0.7052,0.7044,0.7036,0.7035,0.7028,0.7029,0.7027,0.7021,0.7014,0.7023,0.7024,0.7024,0.7013,0.7013,0.7013,0.7012,0,0,0.7122,0.7106,0.7107,0.7102,0.7091,0.7089,0.7087,0.708,0.7077,0.707,0.7067,0.706,0.7054,0.7049,0.7041,0.704,0.7045,0.7034,0.7033,0.7035,0.7044,0.7049,0.705,0.704,0.704,0.704,0.7045,0,0.7133,0.713,0.712,0.7119,0.7116,0.7103,0.7101,0.7093,0.7086,0.7081,0.7072,0.7067,0.706,0.7056,0.7054,0.7045,0.7047,0.7044,0.7036,0.7036,0.7038,0.7051,0.7056,0.7061,0.7045,0.7045,0.7045,0,0.7146,0.714,0.7139,0.7126,0.7125,0.7123,0.7115,0.7111,0.7101,0.7095,0.7089,0.708,0.7075,0.7068,0.7061,0.7059,0.7055,0.7049,0.7049,0.7048,0.7041,0.7049,0.7063,0.7063,0.7046,0.7046,0.7046,0,0.7163,0.7154,0.7152,0.7148,0.7134,0.7133,0.7127,0.7117,0.7112,0.7104,0.7101,0.7092,0.7087,0.708,0.7068,0.7065,0.7061,0.7054,0.7056,0.7056,0.7056,0.7056,0.7068,0.7053,0.7053,0.7053,0.7053,0,0.7176,0.7176,0.7159,0.7158,0.7157,0.7144,0.7143,0.7135,0.7126,0.7121,0.7109,0.7105,0.709,0.7084,0.7074,0.7068,0.7066,0.7061,0.7058,0.7062,0.7063,0.7059,0.7058,0.7054,0.7053,0.7053,0.7053,0,0.7196,0.7185,0.7181,0.7167,0.7164,0.7163,0.7151,0.7148,0.7139,0.7134,0.7131,0.7117,0.7109,0.7096,0.7084,0.7077,0.7073,0.7069,0.7076,0.7075,0.7077,0.7077,0.7087,0.7087,0.7073,0.7073,0.7073,0,0.7205,0.7204,0.719,0.7187,0.7181,0.7175,0.7171,0.7157,0.7153,0.714,0.7138,0.7129,0.7121,0.7108,0.7096,0.7086,0.7081,0.7085,0.708,0.7083,0.708,0.708,0.708,0.7087,0.7087,0.7087,0.7088,0,0.7222,0.7216,0.721,0.7202,0.7196,0.7189,0.7181,0.7178,0.7163,0.7158,0.7149,0.7143,0.713,0.712,0.7108,0.71,0.7091,0.7089,0.7089,0.7093,0.7097,0.7094,0.708,0.7089,0.7089,0.7089,0.7089,0.7089,0.7236,0.7234,0.7224,0.7217,0.7209,0.7201,0.7198,0.7188,0.7181,0.717,0.7162,0.7153,0.7141,0.7124,0.7116,0.7108,0.7104,0.7104,0.7104,0.7104,0.7105,0.7098,0.7106,0.7106,0.7106,0.7105,0.7105,0,0.7252,0.7244,0.7238,0.7227,0.7221,0.7213,0.7202,0.7198,0.7191,0.718,0.7172,0.7161,0.7151,0.7137,0.7126,0.7122,0.7117,0.712,0.712,0.7118,0.7109,0.711,0.7124,0.7124,0.7124,0.7124,0.7124,0.7124,0.726,0.7256,0.7249,0.724,0.7231,0.7224,0.7218,0.721,0.7202,0.719,0.7182,0.7173,0.7161,0.7148,0.7138,0.7134,0.713,0.7133,0.7128,0.712,0.7119,0.7117,0.7118,0.7133,0.7133,0.7137,0.7137,0.7137]}]]